TimeCDT,TemperatureF,Dew PointF,Humidity,Sea Level PressureIn,VisibilityMPH,Wind Direction,Wind SpeedMPH,Gust SpeedMPH,PrecipitationIn,Events,Conditions,WindDirDegrees,DateUTC
12:51 AM,70.0,55.9,61,30.19,10.0,South,9.2,-,N/A,,Scattered Clouds,170,2013-05-14 05:51:00
1:51 AM,68.0,55.9,65,30.17,10.0,SSE,9.2,-,N/A,,Scattered Clouds,160,2013-05-14 06:51:00
2:51 AM,64.0,55.0,73,30.16,10.0,SE,3.5,-,N/A,,Scattered Clouds,130,2013-05-14 07:51:00
3:51 AM,64.9,57.0,75,30.14,10.0,Calm,Calm,-,N/A,,Mostly Cloudy,0,2013-05-14 08:51:00
4:51 AM,62.1,55.9,80,30.13,10.0,Calm,Calm,-,N/A,,Mostly Cloudy,0,2013-05-14 09:51:00
5:51 AM,64.0,57.9,80,30.14,10.0,Calm,Calm,-,N/A,,Clear,0,2013-05-14 10:51:00
6:18 AM,60.8,55.4,82,30.18,10.0,ESE,3.5,-,N/A,,Mostly Cloudy,110,2013-05-14 11:18:00
6:21 AM,62.6,57.2,82,30.18,10.0,East,3.5,-,N/A,,Mostly Cloudy,100,2013-05-14 11:21:00
6:51 AM,62.1,57.0,84,30.13,10.0,Calm,Calm,-,N/A,,Mostly Cloudy,0,2013-05-14 11:51:00
7:51 AM,66.0,61.0,84,30.15,10.0,Calm,Calm,-,N/A,,Overcast,0,2013-05-14 12:51:00
8:44 AM,69.8,62.6,78,30.22,10.0,South,5.8,-,N/A,,Mostly Cloudy,180,2013-05-14 13:44:00
8:51 AM,69.1,63.0,81,30.18,10.0,South,6.9,-,N/A,,Mostly Cloudy,190,2013-05-14 13:51:00
8:58 AM,69.8,62.6,78,30.22,9.0,South,5.8,-,N/A,,Scattered Clouds,190,2013-05-14 13:58:00
9:13 AM,69.8,62.6,78,30.22,10.0,SSW,9.2,-,N/A,,Mostly Cloudy,200,2013-05-14 14:13:00
9:35 AM,71.6,64.4,78,30.23,10.0,South,9.2,-,N/A,,Mostly Cloudy,180,2013-05-14 14:35:00
9:51 AM,72.0,64.0,76,30.18,10.0,South,10.4,-,N/A,,Mostly Cloudy,180,2013-05-14 14:51:00
10:32 AM,73.4,62.6,69,30.23,10.0,South,9.2,-,N/A,,Scattered Clouds,190,2013-05-14 15:32:00
10:51 AM,75.0,62.1,64,30.17,10.0,SSW,8.1,-,N/A,,Scattered Clouds,200,2013-05-14 15:51:00
11:51 AM,77.0,62.1,60,30.15,10.0,Variable,5.8,-,N/A,,Scattered Clouds,0,2013-05-14 16:51:00
12:51 PM,80.6,60.8,51,30.18,10.0,SSE,6.9,-,N/A,,Scattered Clouds,160,2013-05-14 17:51:00
1:51 PM,82.9,62.1,49,30.10,10.0,SSE,9.2,-,N/A,,Scattered Clouds,160,2013-05-14 18:51:00
2:51 PM,82.9,62.1,49,30.08,10.0,South,13.8,18.4,N/A,,Scattered Clouds,170,2013-05-14 19:51:00
3:51 PM,84.0,62.1,47,30.06,10.0,SSE,11.5,-,N/A,,Mostly Cloudy,150,2013-05-14 20:51:00
4:51 PM,84.9,63.0,48,30.03,10.0,SE,15.0,-,N/A,,Scattered Clouds,130,2013-05-14 21:51:00
5:51 PM,86.0,62.1,44,30.00,10.0,South,15.0,24.2,N/A,,Scattered Clouds,170,2013-05-14 22:51:00
6:51 PM,84.0,61.0,46,29.97,10.0,SSE,16.1,-,N/A,,Scattered Clouds,160,2013-05-14 23:51:00
7:51 PM,81.0,64.9,58,29.97,10.0,SSE,19.6,26.5,N/A,,Scattered Clouds,150,2013-05-15 00:51:00
8:51 PM,79.0,66.0,64,29.99,10.0,SSE,19.6,27.6,0.00,,Scattered Clouds,160,2013-05-15 01:51:00
9:51 PM,77.0,64.9,66,30.03,10.0,SSE,21.9,29.9,N/A,,Mostly Cloudy,150,2013-05-15 02:51:00
10:11 PM,75.2,64.4,69,30.08,10.0,SSE,17.3,26.5,N/A,,Overcast,150,2013-05-15 03:11:00
10:51 PM,75.0,66.0,73,30.05,10.0,SSE,18.4,24.2,N/A,,Mostly Cloudy,160,2013-05-15 03:51:00
11:41 PM,73.4,66.2,78,30.11,10.0,SSE,16.1,21.9,N/A,,Overcast,160,2013-05-15 04:41:00
11:51 PM,73.9,66.9,79,30.06,10.0,SSE,16.1,23.0,N/A,,Overcast,160,2013-05-15 04:51:00